Regional Weather Roundup
Issued by NWS

Home | Current Version | Previous Version | Text Only | Print | Product List | Glossary Off
Versions: 1 2 3 4 5 6 7 8 9 10 11 12 13 14 15 16 17 18 19 20 21 22 23 24 25 26 27 28 29 30 31 32 33 34 35 36 37 38 39 40 41 42 43 44 45 46 47 48 49 50

617
ASUS43 KIND 240809
RWRIN

WEATHER ROUNDUP FOR INDIANA
NATIONAL WEATHER SERVICE INDIANAPOLIS IN
400 AM EDT FRI MAR 24 2017

NOTE: "FAIR" INDICATES FEW OR NO CLOUDS BELOW 12,000 FEET WITH NO
SIGNIFICANT WEATHER AND/OR OBSTRUCTIONS TO VISIBILITY.

* - STATION DOES NOT REPORT WEATHER SUCH AS PRECIPITATION OR FOG.

+ - STATION NOT QUALITY CONTROLLED BY THE NATIONAL WEATHER SERVICE.
    USE DATA WITH CAUTION...ESPECIALLY DEWPOINT AND RELATIVE
    HUMIDITY OBSERVATIONS.

INZ001>003-010>013-019-020-240900-
NORTHWEST INDIANA

CITY           SKY/WX    TMP DP  RH WIND       PRES   REMARKS
GARY /AIRPORT/ CLOUDY    47  32  55 CALM      29.98F
KNOX *+        CLEAR     45  19  36 S9        29.99F
LA PORTE +     CLEAR     45  35  66 S5        30.00F
MICHIGAN CITY+ CLOUDY    46  34  61 S5        30.00F
MONTICELLO +   CLOUDY    48  37  64 SE3       30.00F
RENSSELAER +   CLOUDY    43  36  75 SE5       29.99F
VALPARAISO     CLEAR     48  36  63 SE7       29.99F

$$

LMZ046-743>745-240900-
SOUTHERN LAKE MICHIGAN

STATION/POSITION TIME  TEMP    WIND        PRES    WAVE
                       AIR SEA DIR/SP/G            HT
                 (UTC) (F)     (DEG/KT/KT) (MB)    (FT)
BURNS HARBOR     0740   49     170/  8/ 13 1015.6F
MICHIGAN CITY    0740   49     160/  6/  7   N/A

$$

INZ004-005-014>016-021>024-240900-
NORTH CENTRAL INDIANA

CITY           SKY/WX    TMP DP  RH WIND       PRES   REMARKS
GOSHEN         CLOUDY    49  35  58 S13       30.01F
LOGANSPORT +   CLEAR     43  36  75 SE6       30.04S
PERU/GRISSOM   PTCLDY    47  38  71 S3        30.03R
ROCHESTER +    CLEAR     46  36  66 S6        30.03F
SOUTH BEND     PTCLDY    46  36  68 S8        30.01F
WARSAW +       CLOUDY    48  36  61 S5        30.03F

$$

INZ006>009-017-018-025>027-240900-
NORTHEAST INDIANA

CITY           SKY/WX    TMP DP  RH WIND       PRES   REMARKS
ANGOLA *+      MOCLDY    43  32  65 S6        30.05S
AUBURN +       CLOUDY    45  36  70 CALM      30.06F
FORT WAYNE     CLOUDY    47  38  71 SE5       30.07F
HUNTINGTON +   CLOUDY    41  37  84 CALM      30.05F
KENDALLVILLE + CLOUDY    47  37  68 S9        30.05F

$$

INZ028-029-035-036-043>045-051>053-240900-
WEST CENTRAL INDIANA

CITY           SKY/WX    TMP DP  RH WIND       PRES   REMARKS
CRAWFORDSVL +  CLOUDY    55  44  66 S15       30.01F
GREENCASTLE +  CLEAR     59  43  55 S8G23     30.03F
LAFAYETTE      CLOUDY    54  42  64 SW8       29.99F
TERRE HAUTE    PTCLDY    56  42  59 S16       30.02F

$$

INZ030>032-037>040-046>048-054>057-064-065-240900-
CENTRAL INDIANA

CITY           SKY/WX    TMP DP  RH WIND       PRES   REMARKS
CP ATTERBURY + CLEAR     50  37  62 S7        30.08F
FISHERS *+     CLEAR     50  41  71 S10       30.05
FRANKFORT +    CLOUDY    53  42  66 S12       30.02F
GREENWOOD *+   CLEAR     49  38  66 S8        30.06F
INDIANAPOLIS   PTCLDY    52  39  61 S12       30.04F
-EAGLE CREEK   CLEAR     53  39  59 S7        30.03F
KOKOMO +       CLEAR     48  38  68 S6        30.04F
MARION +       CLEAR     49  38  66 S7        30.06S
MT COMFORT *+  CLEAR     50  39  66 S10       30.05F
SHELBYVILLE    CLEAR     54  39  57 S16       30.06F
ZIONSVILLE +   CLEAR     49  38  66 S12       30.04S

$$

INZ033-034-041-042-049-050-058-059-240900-
EAST CENTRAL INDIANA

CITY           SKY/WX    TMP DP  RH WIND       PRES   REMARKS
MUNCIE         CLEAR     55  39  54 S14G21    30.06S
RICHMOND +     CLEAR     45  36  70 S10       30.11S

$$

INZ060-061-067>069-081>083-085>088-240900-
SOUTHWEST INDIANA

CITY           SKY/WX    TMP DP  RH WIND       PRES   REMARKS
EVANSVILLE     CLEAR     56  44  64 S8        30.10F
HUNTINGBURG *+ CLEAR     57  45  64 S13       30.10
WASHINGTON +   CLEAR     53  41  63 CALM      30.07F

$$

INZ062-063-066-070>080-084-089>092-240900-
SOUTH CENTRAL AND SOUTHEAST INDIANA

CITY           SKY/WX    TMP DP  RH WIND       PRES   REMARKS
BEDFORD +      CLEAR     54  41  62 S8        30.09F
BLOOMINGTON    CLEAR     56  41  57 S12       30.06F
MADISON *+     CLEAR     54  37  54 S10G18    30.15F
NORTH VERNON + CLEAR     55  39  54 S13G18    30.12F
SEYMOUR +      CLEAR     55  41  58 S13       30.10F

$$





USA.gov is the U.S. government's official web portal to all federal, state and local government web resources and services.